CW1509 Weather Reports


Display with metric or nautical units.
time (UTC)temp
F
wind
direction
speed
MPH
gust
MPH
rain 1hr
in
rain 24hr
in
rain mn
in
humidity
%
barometer
mb
20260506050921 48 360 0.0 0.0 0.00 0.03 0.00 76 1010.3
20260506050421 48 360 0.0 0.0 0.00 0.03 0.00 77 1010.4
20260506044944 48 360 0.0 0.0 0.00 0.03 0.00 76 1010.3
20260506044443 48 360 0.0 0.0 0.00 0.03 0.00 76 1010.1
20260506043923 48 360 0.0 0.0 0.00 0.03 0.00 75 1010.2
20260506043423 48 360 0.0 0.0 0.00 0.03 0.00 74 1010.2
20260506042943 48 360 0.0 0.0 0.00 0.03 0.00 74 1010.1
20260506042441 48 360 0.0 0.0 0.00 0.03 0.00 73 1009.9
20260506041942 48 360 0.0 0.0 0.00 0.03 0.00 73 1009.9
20260506041421 48 360 0.0 0.0 0.00 0.03 0.00 73 1009.7
20260506040921 48 360 0.0 0.0 0.00 0.03 0.00 73 1009.8
20260506040442 48 360 0.0 0.0 0.00 0.07 0.03 73 1009.7
20260506035913 48 360 0.0 0.0 0.00 0.07 0.03 73 1009.6
20260506035414 48 360 0.0 0.0 0.00 0.07 0.03 73 1009.6
20260506034913 49 360 0.0 0.0 0.00 0.07 0.03 73 1009.5
20260506034412 49 360 0.0 0.0 0.00 0.07 0.03 72 1009.5
20260506033934 49 360 0.0 0.0 0.00 0.07 0.03 72 1009.7
20260506033415 49 360 0.0 0.0 0.00 0.07 0.03 71 1009.7
20260506032915 49 360 0.0 0.0 0.00 0.07 0.03 71 1009.9
20260506032416 49 360 0.0 0.0 0.00 0.07 0.03 70 1009.7
20260506031936 49 360 0.0 0.0 0.00 0.07 0.03 70 1009.8
20260506031420 49 360 0.0 0.0 0.00 0.07 0.03 69 1009.9
20260506030941 49 360 0.0 0.0 0.00 0.07 0.03 68 1009.9
20260506030437 49 360 0.0 0.0 0.00 0.12 0.03 68 1009.7
20260506025918 49 360 0.0 0.0 0.00 0.12 0.03 68 1009.7
20260506025420 49 360 0.0 0.0 0.00 0.12 0.03 68 1009.7
20260506024923 49 360 0.0 0.0 0.00 0.12 0.03 68 1009.8
20260506024423 50 360 0.0 0.0 0.00 0.12 0.03 68 1009.7
20260506023944 50 360 0.0 0.0 0.00 0.12 0.03 68 1009.7
20260506023424 50 360 0.0 0.0 0.00 0.12 0.03 68 1009.6
20260506022925 50 360 0.0 0.0 0.00 0.12 0.03 67 1009.5
20260506022447 50 360 0.0 0.0 0.00 0.12 0.03 68 1009.5
20260506021929 50 360 0.0 0.0 0.00 0.12 0.03 66 1009.5
20260506021411 50 360 0.0 0.0 0.00 0.12 0.03 66 1009.4
20260506020912 50 360 0.0 0.0 0.00 0.12 0.03 65 1009.4
20260506020413 50 360 0.0 0.0 0.00 0.21 0.03 62 1009.4
20260506015913 50 360 0.0 0.0 0.00 0.21 0.03 61 1009.4
20260506015415 50 360 0.0 0.0 0.00 0.21 0.03 61 1009.2
20260506014914 50 360 0.0 0.0 0.00 0.21 0.03 60 1009.4
20260506014415 50 360 0.0 0.0 0.00 0.21 0.03 59 1009.1
20260506013916 51 360 0.0 0.0 0.00 0.21 0.03 59 1009.0
20260506013421 51 360 0.0 0.0 0.00 0.21 0.03 59 1008.9
20260506012945 51 360 0.0 0.0 0.00 0.21 0.03 59 1009.1
20260506012426 51 360 0.0 0.0 0.00 0.21 0.03 59 1009.0
20260506011926 51 360 0.0 0.0 0.00 0.21 0.03 58 1008.8
20260506011424 51 360 0.0 0.0 0.00 0.21 0.03 55 1008.7
20260506010925 51 360 0.0 0.0 0.00 0.21 0.03 54 1008.8
20260506010425 51 360 0.0 0.0 0.00 0.27 0.03 53 1008.7
20260506005925 51 360 0.0 0.0 0.00 0.27 0.03 53 1008.6
20260506005425 51 360 0.0 0.0 0.00 0.27 0.03 53 1008.6
20260506004926 51 360 0.0 0.0 0.00 0.27 0.03 55 1008.6
20260506004426 51 360 0.0 0.0 0.00 0.27 0.03 54 1008.6
20260506003928 52 360 0.0 0.0 0.00 0.27 0.03 53 1008.6
20260506003428 52 360 0.0 0.0 0.00 0.27 0.03 51 1008.6
20260506002929 52 360 0.0 0.0 0.00 0.27 0.03 52 1008.4
20260506002428 52 360 0.0 0.0 0.00 0.27 0.03 52 1008.5
20260506001927 52 360 0.0 0.0 0.00 0.27 0.03 51 1008.6
20260506001427 52 360 0.0 0.0 0.00 0.27 0.03 50 1008.3
20260506000928 52 360 0.0 0.0 0.00 0.27 0.03 48 1008.2
20260506000449 52 360 0.0 0.0 0.00 0.27 0.03 49 1008.3
20260505235927 52 360 0.0 0.0 0.00 0.27 0.03 49 1008.3
20260505235448 52 360 0.0 0.0 0.00 0.27 0.03 49 1008.3
20260505234927 52 360 0.0 0.0 0.00 0.27 0.03 47 1008.4
20260505234429 52 360 0.0 0.0 0.00 0.27 0.03 48 1008.4
20260505233929 52 360 0.0 0.0 0.00 0.27 0.03 46 1008.6
20260505233430 52 360 0.0 0.0 0.00 0.27 0.03 47 1008.5
20260505232930 52 360 0.0 0.0 0.00 0.27 0.03 48 1008.6
20260505232432 52 360 0.0 0.0 0.00 0.27 0.03 48 1008.6
20260505231952 52 360 0.0 0.0 0.00 0.27 0.03 48 1008.7
20260505231432 52 360 0.0 0.0 0.00 0.27 0.03 48 1008.7
20260505230913 52 360 0.0 0.0 0.00 0.27 0.03 47 1008.7
20260505230413 52 360 0.0 0.0 0.00 0.27 0.03 46 1008.7
20260505225913 52 360 0.0 0.0 0.00 0.27 0.03 47 1008.7
20260505225413 52 360 0.0 0.0 0.00 0.27 0.03 49 1008.7
20260505224912 52 360 0.0 0.0 0.00 0.27 0.03 49 1008.8
20260505224412 52 360 0.0 0.0 0.00 0.27 0.03 49 1008.9
20260505223913 52 360 0.0 2.0 0.00 0.27 0.03 48 1008.9
20260505223413 52 360 0.0 3.0 0.00 0.27 0.03 47 1008.8
20260505222913 52 360 1.0 3.0 0.00 0.27 0.03 48 1008.8
20260505222413 52 360 0.0 2.0 0.00 0.27 0.03 48 1008.9
20260505221912 52 360 0.0 0.0 0.00 0.27 0.03 47 1008.9
20260505221414 52 360 0.0 0.0 0.00 0.27 0.03 48 1008.9
20260505220913 52 360 0.0 0.0 0.00 0.27 0.03 48 1008.9
20260505220412 53 360 0.0 0.0 0.00 0.34 0.03 49 1008.9
20260505215934 53 360 0.0 0.0 0.00 0.34 0.03 50 1008.9
20260505215433 53 360 0.0 2.0 0.00 0.34 0.03 48 1008.9
20260505214915 53 360 0.0 3.0 0.00 0.34 0.03 49 1008.9
20260505214415 53 360 0.0 3.0 0.00 0.34 0.03 47 1008.9
20260505213915 53 360 0.0 2.0 0.00 0.34 0.03 47 1008.9
20260505213437 53 360 0.0 2.0 0.00 0.34 0.03 47 1009.0
20260505212915 53 360 0.0 3.0 0.00 0.34 0.03 48 1008.9
20260505212416 53 360 1.0 3.0 0.00 0.34 0.03 47 1008.9
20260505211913 53 360 0.0 3.0 0.00 0.34 0.03 48 1009.0
20260505211415 53 360 1.0 3.0 0.00 0.34 0.03 47 1009.1
20260505210916 53 360 1.0 3.0 0.00 0.34 0.03 47 1009.1
20260505210415 53 360 0.0 4.0 0.00 0.34 0.03 47 1009.2
20260505205936 53 360 1.0 4.0 0.00 0.34 0.03 46 1009.2
20260505205415 53 360 1.0 4.0 0.00 0.34 0.03 46 1009.2
20260505204916 53 360 2.0 4.0 0.00 0.34 0.03 46 1009.1
20260505204416 53 360 0.0 4.0 0.00 0.34 0.03 46 1009.0
20260505203917 53 360 1.0 4.0 0.00 0.34 0.03 44 1009.0
20260505203418 53 360 1.0 3.0 0.00 0.34 0.03 45 1009.0
20260505202918 54 360 1.0 3.0 0.00 0.34 0.03 44 1009.0
20260505202420 54 360 0.0 2.0 0.00 0.34 0.03 46 1009.0
20260505201919 54 360 0.0 1.0 0.00 0.34 0.03 44 1009.2
20260505201420 54 360 0.0 5.0 0.00 0.34 0.03 46 1009.2
20260505200920 54 360 2.0 5.0 0.00 0.34 0.03 44 1009.1
20260505200421 54 360 1.0 4.0 0.00 0.34 0.03 42 1009.1
20260505195920 54 360 0.0 3.0 0.00 0.34 0.03 45 1009.1
20260505195420 54 360 0.0 3.0 0.00 0.34 0.03 45 1009.3
20260505194920 54 360 1.0 3.0 0.00 0.34 0.03 44 1009.4
20260505194421 54 360 0.0 3.0 0.00 0.34 0.03 45 1009.4
20260505193940 54 360 1.0 3.0 0.00 0.34 0.03 45 1009.3
20260505193418 54 360 1.0 3.0 0.00 0.34 0.03 45 1009.5
20260505192919 54 360 1.0 3.0 0.00 0.34 0.03 44 1009.5
20260505192435 55 360 1.0 5.0 0.00 0.34 0.03 46 1009.5
20260505191916 55 360 2.0 5.0 0.00 0.34 0.03 44 1009.4
20260505191416 55 360 2.0 4.0 0.00 0.34 0.03 45 1009.5
20260505190915 55 360 1.0 4.0 0.00 0.34 0.03 44 1009.5
20260505190417 55 360 0.0 5.0 0.00 0.34 0.03 46 1009.4
20260505185918 55 360 2.0 6.0 0.00 0.34 0.03 44 1009.4
20260505185419 55 360 2.0 6.0 0.00 0.34 0.03 45 1009.4
20260505184918 55 360 2.0 3.0 0.00 0.34 0.03 48 1009.4
20260505184418 55 360 1.0 3.0 0.00 0.34 0.03 48 1009.4
20260505183918 55 360 1.0 3.0 0.00 0.34 0.03 49 1009.3
20260505183439 55 360 0.0 6.0 0.00 0.34 0.03 49 1009.2
20260505182919 55 360 3.0 6.0 0.00 0.34 0.03 47 1009.1
20260505182419 55 360 1.0 6.0 0.00 0.34 0.03 48 1009.2
20260505181921 55 360 1.0 5.0 0.00 0.34 0.03 50 1009.3
20260505181428 55 360 3.0 5.0 0.00 0.34 0.03 51 1009.1
20260505180929 55 360 1.0 6.0 0.00 0.34 0.03 52 1009.2
20260505180430 55 360 2.0 8.0 0.00 0.34 0.03 52 1009.2
20260505175930 55 360 1.0 3.0 0.00 0.34 0.03 54 1009.0
20260505175431 55 360 0.0 6.0 0.00 0.34 0.03 53 1009.1
20260505174912 55 360 1.0 5.0 0.00 0.34 0.03 53 1009.0
20260505174413 55 360 2.0 4.0 0.00 0.34 0.03 53 1008.9
20260505173915 55 360 1.0 6.0 0.00 0.34 0.03 54 1008.9
20260505173413 55 290 2.0 6.0 0.00 0.34 0.03 57 1009.0
20260505172935 54 360 1.0 6.0 0.00 0.34 0.03 60 1009.0
20260505172434 54 360 3.0 6.0 0.00 0.34 0.03 59 1009.0
20260505171913 54 360 0.0 6.0 0.00 0.34 0.03 56 1008.9
20260505171413 54 360 3.0 6.0 0.00 0.34 0.03 58 1008.7
20260505170912 54 360 2.0 4.0 0.00 0.34 0.03 59 1008.7
20260505170412 54 360 1.0 4.0 0.00 0.34 0.03 56 1008.8
20260505165932 54 333 0.0 5.0 0.00 0.34 0.03 60 1008.7
20260505165453 54 360 1.0 5.0 0.00 0.34 0.03 63 1008.9
20260505164917 53 360 1.0 3.0 0.00 0.34 0.03 63 1008.8
20260505164417 53 360 1.0 5.0 0.00 0.34 0.03 59 1008.9
20260505163917 52 360 2.0 6.0 0.00 0.34 0.03 63 1008.8
20260505163418 52 360 1.0 4.0 0.00 0.34 0.03 65 1008.8
20260505162918 52 360 2.0 5.0 0.00 0.34 0.03 64 1008.8
20260505162419 52 360 1.0 5.0 0.00 0.34 0.03 69 1008.7
20260505161918 52 292 1.0 4.0 0.00 0.34 0.03 65 1008.6
20260505161418 51 360 2.0 4.0 0.00 0.34 0.03 73 1008.6
20260505160939 50 360 0.0 5.0 0.00 0.34 0.03 73 1008.3
20260505160418 50 360 0.0 5.0 0.00 0.34 0.03 76 1008.5
20260505152920 45 360 0.0 4.0 0.00 0.34 0.03 83 1008.7
20260505152442 45 360 1.0 5.0 0.00 0.34 0.03 84 1008.8
20260505151918 45 360 2.0 5.0 0.01 0.34 0.03 85 1008.7
20260505151418 45 360 0.0 3.0 0.01 0.34 0.03 85 1008.5
20260505150918 44 360 1.0 3.0 0.01 0.34 0.03 85 1008.7
20260505150419 44 360 1.0 2.0 0.02 0.34 0.03 85 1008.9
20260505140419 46 360 0.0 2.0 0.01 0.32 0.01 79 1009.3
20260505124916 49 360 1.0 5.0 0.00 0.31 0.00 73 1007.9
20260505124416 49 360 3.0 5.0 0.00 0.31 0.00 72 1007.6
20260505123917 49 360 1.0 4.0 0.00 0.31 0.00 73 1007.1
20260505123416 49 360 1.0 5.0 0.00 0.31 0.00 73 1006.8
20260505122936 49 360 1.0 5.0 0.00 0.31 0.00 73 1006.7
20260505122417 49 360 1.0 4.0 0.00 0.31 0.00 73 1007.1
20260505121916 49 360 1.0 5.0 0.00 0.31 0.00 73 1007.0
20260505121418 49 360 2.0 5.0 0.00 0.31 0.00 73 1007.0
20260505120918 49 360 1.0 4.0 0.00 0.31 0.00 73 1007.6
20260505120418 49 360 2.0 4.0 0.00 0.31 0.00 72 1007.1
20260505115938 49 360 0.0 3.0 0.00 0.31 0.00 72 1006.6
20260505115437 49 360 0.0 3.0 0.00 0.31 0.00 71 1006.2
20260505114917 49 360 1.0 3.0 0.00 0.31 0.00 70 1005.9
20260505114420 49 360 1.0 3.0 0.00 0.31 0.00 70 1006.1
20260505113920 49 360 0.0 0.0 0.00 0.31 0.00 71 1006.2
20260505113435 49 360 0.0 0.0 0.00 0.31 0.00 71 1005.9
20260505112916 49 360 0.0 0.0 0.00 0.31 0.00 70 1005.6
20260505112415 50 360 0.0 0.0 0.00 0.31 0.00 69 1005.2
20260505111933 50 360 0.0 0.0 0.00 0.31 0.00 69 1005.2
20260505111413 50 360 0.0 0.0 0.00 0.31 0.00 68 1005.3
20260505110913 50 360 0.0 0.0 0.00 0.31 0.00 68 1005.4
20260505110413 50 360 0.0 3.0 0.00 0.31 0.00 67 1005.6
20260505101919 52 360 1.0 3.0 0.00 0.31 0.00 66 1006.0
20260505101419 52 360 2.0 4.0 0.00 0.31 0.00 66 1005.7
20260505100921 52 360 1.0 4.0 0.00 0.31 0.00 66 1005.4
20260505100423 52 360 2.0 4.0 0.00 0.31 0.00 66 1005.2
20260505095924 52 360 2.0 4.0 0.00 0.31 0.00 68 1004.8
20260505095426 53 360 1.0 5.0 0.00 0.31 0.00 69 1004.9
20260505094925 53 360 2.0 5.0 0.00 0.31 0.00 70 1005.0
20260505094427 53 360 2.0 4.0 0.00 0.31 0.00 72 1004.7
20260505093929 53 360 0.0 0.0 0.00 0.31 0.00 75 1004.5
20260505093429 53 360 0.0 0.0 0.00 0.31 0.00 75 1004.6
20260505092931 53 360 0.0 0.0 0.00 0.31 0.00 74 1004.2
20260505092411 53 360 0.0 2.0 0.00 0.31 0.00 73 1004.2
20260505091913 53 360 0.0 3.0 0.00 0.31 0.00 72 1004.2
20260505091414 53 360 1.0 3.0 0.00 0.31 0.00 73 1004.1
20260505090913 54 360 0.0 4.0 0.00 0.31 0.00 78 1003.8
20260505090415 54 360 1.0 4.0 0.00 0.31 0.00 83 1003.7
20260505085914 54 360 0.0 0.0 0.00 0.31 0.00 88 1003.9
20260505085415 55 360 0.0 0.0 0.00 0.31 0.00 89 1004.1
20260505084917 55 360 0.0 0.0 0.00 0.31 0.00 90 1004.1
20260505084419 55 360 0.0 0.0 0.00 0.31 0.00 90 1004.2
20260505083939 55 360 0.0 0.0 0.00 0.31 0.00 90 1004.1
20260505083420 55 360 0.0 0.0 0.00 0.31 0.00 90 1003.7
20260505082920 55 360 0.0 0.0 0.00 0.31 0.00 90 1003.4
20260505082422 55 360 0.0 0.0 0.00 0.31 0.00 90 1003.3
20260505081923 55 360 0.0 0.0 0.00 0.31 0.00 90 1003.2
20260505081424 55 360 0.0 0.0 0.00 0.31 0.00 90 1003.1
20260505080927 55 360 0.0 0.0 0.00 0.31 0.00 90 1003.1
20260505080428 55 360 0.0 0.0 0.00 0.31 0.00 90 1003.1
20260505075929 55 360 0.0 0.0 0.00 0.31 0.00 90 1003.2
20260505075411 55 360 0.0 0.0 0.00 0.31 0.00 90 1003.1
20260505074912 55 360 0.0 0.0 0.00 0.31 0.00 90 1002.8
20260505074412 56 360 0.0 0.0 0.00 0.31 0.00 89 1002.8
20260505073913 56 360 0.0 0.0 0.00 0.31 0.00 89 1002.6
20260505073415 56 360 0.0 0.0 0.00 0.31 0.00 89 1002.5
20260505072916 56 360 0.0 2.0 0.00 0.31 0.00 89 1002.7
20260505072437 56 360 0.0 2.0 0.00 0.31 0.00 88 1002.7
20260505071919 56 360 0.0 0.0 0.00 0.31 0.00 88 1002.5
20260505071421 56 360 0.0 0.0 0.00 0.31 0.00 88 1002.7
20260505070924 56 360 0.0 0.0 0.00 0.31 0.00 88 1002.7
20260505070426 56 360 0.0 0.0 0.00 0.31 0.00 88 1002.8
20260505065929 56 360 0.0 0.0 0.00 0.31 0.00 88 1002.7
20260505065431 56 360 0.0 0.0 0.00 0.31 0.00 88 1002.5
20260505064935 56 360 0.0 0.0 0.00 0.31 0.00 88 1002.2
20260505064434 56 360 0.0 0.0 0.00 0.31 0.00 88 1002.0
20260505063943 56 360 0.0 3.0 0.00 0.31 0.00 88 1002.0
20260505063424 56 360 1.0 3.0 0.00 0.31 0.00 88 1001.9
20260505062945 56 360 0.0 2.0 0.00 0.31 0.00 88 1001.7
20260505062426 57 360 0.0 2.0 0.00 0.31 0.00 88 1001.6
20260505061927 57 360 0.0 3.0 0.00 0.31 0.00 88 1001.7
20260505061425 57 360 0.0 3.0 0.00 0.31 0.00 88 1001.9
20260505060946 57 360 0.0 2.0 0.00 0.31 0.00 88 1001.8
20260505060425 57 360 0.0 3.0 0.00 0.31 0.00 88 1001.8
20260505055928 57 360 0.0 3.0 0.00 0.31 0.00 88 1001.7
20260505055431 57 360 0.0 2.0 0.00 0.31 0.00 88 1001.9